| time (UTC) | temp C | wind direction | speed KPH | gust KPH | rain 1hr cm | rain 24hr cm | rain mn cm | humidity % | barometer mb |
| 20260509053531 | 8 | 192 | 3.2 | 4.8 | 0.00 | 0.00 | 0.00 | 50 | 1005.0 |
| 20260509053110 | 8 | 194 | 3.2 | 3.2 | 0.00 | 0.00 | 0.00 | 49 | 1005.0 |
| 20260509052531 | 8 | 189 | 1.6 | 4.8 | 0.00 | 0.00 | 0.00 | 51 | 1005.1 |
| 20260509052030 | 8 | 178 | 3.2 | 4.8 | 0.00 | 0.00 | 0.00 | 50 | 1005.1 |
| 20260509051541 | 8 | 190 | 1.6 | 4.8 | 0.00 | 0.00 | 0.00 | 52 | 1005.1 |
| 20260509051029 | 8 | 194 | 3.2 | 4.8 | 0.00 | 0.00 | 0.00 | 51 | 1005.2 |
| 20260509050532 | 8 | 191 | 1.6 | 3.2 | 0.00 | 0.00 | 0.00 | 52 | 1005.2 |
| 20260509050046 | 8 | 195 | 1.6 | 3.2 | 0.00 | 0.00 | 0.00 | 51 | 1005.3 |
| 20260509045531 | 8 | 183 | 1.6 | 3.2 | 0.00 | 0.00 | 0.00 | 52 | 1005.4 |
| 20260509045031 | 8 | 189 | 1.6 | 3.2 | 0.00 | 0.00 | 0.00 | 52 | 1005.4 |
| 20260509044547 | 9 | 183 | 1.6 | 3.2 | 0.00 | 0.00 | 0.00 | 51 | 1005.4 |
| 20260509044031 | 10 | 199 | 0.0 | 6.4 | 0.00 | 0.00 | 0.00 | 50 | 1005.4 |
| 20260509043531 | 10 | 191 | 3.2 | 6.4 | 0.00 | 0.00 | 0.00 | 48 | 1005.3 |
| 20260509043050 | 10 | 187 | 3.2 | 6.4 | 0.00 | 0.00 | 0.00 | 48 | 1005.4 |
| 20260509042532 | 10 | 178 | 3.2 | 4.8 | 0.00 | 0.00 | 0.00 | 47 | 1005.3 |
| 20260509042028 | 10 | 181 | 3.2 | 4.8 | 0.00 | 0.00 | 0.00 | 45 | 1005.3 |
| 20260509041550 | 10 | 190 | 1.6 | 3.2 | 0.00 | 0.00 | 0.00 | 45 | 1005.5 |
| 20260509041034 | 10 | 186 | 1.6 | 3.2 | 0.00 | 0.00 | 0.00 | 45 | 1005.5 |
| 20260509040531 | 10 | 192 | 1.6 | 3.2 | 0.00 | 0.00 | 0.00 | 45 | 1005.5 |
| 20260509040035 | 10 | 193 | 1.6 | 3.2 | 0.00 | 0.00 | 0.00 | 45 | 1005.6 |
| 20260509035528 | 10 | 190 | 0.0 | 3.2 | 0.00 | 0.00 | 0.00 | 46 | 1005.7 |
| 20260509035028 | 10 | 190 | 1.6 | 3.2 | 0.00 | 0.00 | 0.00 | 47 | 1005.9 |
| 20260509034601 | 10 | 181 | 1.6 | 4.8 | 0.00 | 0.00 | 0.00 | 47 | 1005.8 |
| 20260509034031 | 10 | 188 | 1.6 | 4.8 | 0.00 | 0.00 | 0.00 | 46 | 1005.8 |
| 20260509033528 | 10 | 179 | 3.2 | 4.8 | 0.00 | 0.00 | 0.00 | 48 | 1005.9 |
| 20260509033041 | 10 | 174 | 3.2 | 4.8 | 0.00 | 0.00 | 0.00 | 49 | 1005.8 |
| 20260509032527 | 10 | 186 | 1.6 | 3.2 | 0.00 | 0.00 | 0.00 | 48 | 1006.0 |
| 20260509032030 | 10 | 194 | 1.6 | 1.6 | 0.00 | 0.00 | 0.00 | 45 | 1006.1 |
| 20260509031539 | 10 | 193 | 1.6 | 3.2 | 0.00 | 0.00 | 0.00 | 46 | 1006.1 |
| 20260509031028 | 10 | 193 | 0.0 | 4.8 | 0.00 | 0.00 | 0.00 | 46 | 1006.3 |
| 20260509030531 | 10 | 197 | 1.6 | 4.8 | 0.00 | 0.00 | 0.00 | 46 | 1006.3 |
| 20260509030042 | 10 | 191 | 1.6 | 3.2 | 0.00 | 0.00 | 0.00 | 46 | 1006.3 |
| 20260509025531 | 10 | 191 | 1.6 | 3.2 | 0.00 | 0.00 | 0.00 | 47 | 1006.4 |
| 20260509025028 | 10 | 191 | 1.6 | 3.2 | 0.00 | 0.00 | 0.00 | 47 | 1006.2 |
| 20260509024543 | 10 | 193 | 1.6 | 3.2 | 0.00 | 0.00 | 0.00 | 48 | 1006.3 |
| 20260509024033 | 10 | 199 | 0.0 | 1.6 | 0.00 | 0.00 | 0.00 | 47 | 1006.4 |
| 20260509023530 | 10 | 0 | 0.0 | 1.6 | 0.00 | 0.00 | 0.00 | 46 | 1006.3 |
| 20260509023045 | 10 | 0 | 0.0 | 0.0 | 0.00 | 0.00 | 0.00 | 45 | 1006.2 |
| 20260509022528 | 10 | 0 | 0.0 | 0.0 | 0.00 | 0.00 | 0.00 | 44 | 1006.3 |
| 20260509022028 | 10 | 199 | 0.0 | 0.0 | 0.00 | 0.00 | 0.00 | 43 | 1006.4 |
| 20260509021541 | 10 | 0 | 0.0 | 0.0 | 0.00 | 0.00 | 0.00 | 43 | 1006.3 |
| 20260509021027 | 10 | 0 | 0.0 | 0.0 | 0.00 | 0.00 | 0.00 | 43 | 1006.3 |
| 20260509020532 | 11 | 199 | 0.0 | 0.0 | 0.00 | 0.00 | 0.00 | 43 | 1006.4 |
| 20260509020047 | 11 | 0 | 0.0 | 1.6 | 0.00 | 0.00 | 0.00 | 43 | 1006.4 |
| 20260509015531 | 11 | 0 | 0.0 | 1.6 | 0.00 | 0.00 | 0.00 | 44 | 1006.3 |
| 20260509015029 | 11 | 199 | 1.6 | 1.6 | 0.00 | 0.00 | 0.00 | 40 | 1006.3 |
| 20260509014541 | 11 | 199 | 1.6 | 1.6 | 0.00 | 0.00 | 0.00 | 42 | 1006.2 |
| 20260509014030 | 11 | 199 | 0.0 | 1.6 | 0.00 | 0.00 | 0.00 | 41 | 1006.3 |
| 20260509013530 | 12 | 199 | 0.0 | 1.6 | 0.00 | 0.00 | 0.00 | 41 | 1006.3 |
| 20260509013050 | 12 | 200 | 0.0 | 3.2 | 0.00 | 0.00 | 0.00 | 42 | 1006.3 |
| 20260509012530 | 12 | 0 | 1.6 | 3.2 | 0.00 | 0.00 | 0.00 | 42 | 1006.2 |
| 20260509012030 | 12 | 198 | 1.6 | 3.2 | 0.00 | 0.00 | 0.00 | 40 | 1006.2 |
| 20260509011541 | 12 | 203 | 0.0 | 3.2 | 0.00 | 0.00 | 0.00 | 41 | 1006.1 |
| 20260509011030 | 12 | 203 | 0.0 | 3.2 | 0.00 | 0.00 | 0.00 | 41 | 1006.2 |
| 20260509010533 | 12 | 197 | 0.0 | 1.6 | 0.00 | 0.00 | 0.00 | 40 | 1006.3 |
| 20260509010051 | 13 | 208 | 0.0 | 1.6 | 0.00 | 0.00 | 0.00 | 40 | 1006.2 |
| 20260509005529 | 13 | 208 | 0.0 | 1.6 | 0.00 | 0.00 | 0.00 | 39 | 1006.2 |
| 20260509005031 | 13 | 209 | 0.0 | 3.2 | 0.00 | 0.00 | 0.00 | 37 | 1006.1 |
| 20260509004537 | 13 | 212 | 0.0 | 3.2 | 0.00 | 0.00 | 0.00 | 35 | 1006.0 |
| 20260509004031 | 14 | 208 | 0.0 | 3.2 | 0.00 | 0.00 | 0.00 | 34 | 1006.0 |
| 20260509003531 | 15 | 229 | 0.0 | 3.2 | 0.00 | 0.00 | 0.00 | 33 | 1006.0 |
| 20260509003048 | 15 | 0 | 0.0 | 3.2 | 0.00 | 0.00 | 0.00 | 31 | 1006.0 |
| 20260509002531 | 16 | 227 | 1.6 | 3.2 | 0.00 | 0.00 | 0.00 | 30 | 1006.0 |
| 20260509002029 | 16 | 231 | 0.0 | 3.2 | 0.00 | 0.00 | 0.00 | 30 | 1005.9 |
| 20260509001543 | 17 | 226 | 1.6 | 3.2 | 0.00 | 0.00 | 0.00 | 31 | 1005.9 |
| 20260509001028 | 17 | 233 | 0.0 | 3.2 | 0.00 | 0.00 | 0.00 | 30 | 1005.8 |
| 20260509000529 | 17 | 233 | 0.0 | 4.8 | 0.00 | 0.00 | 0.00 | 29 | 1005.7 |
| 20260509000043 | 17 | 220 | 1.6 | 4.8 | 0.00 | 0.00 | 0.00 | 27 | 1005.8 |
| 20260508235531 | 17 | 220 | 1.6 | 4.8 | 0.00 | 0.00 | 0.00 | 28 | 1005.7 |
| 20260508235028 | 18 | 229 | 1.6 | 6.4 | 0.00 | 0.00 | 0.00 | 27 | 1005.7 |
| 20260508234540 | 18 | 224 | 1.6 | 6.4 | 0.00 | 0.00 | 0.00 | 29 | 1005.6 |
| 20260508234030 | 18 | 244 | 3.2 | 8.0 | 0.00 | 0.00 | 0.00 | 25 | 1005.6 |
| 20260508233530 | 18 | 262 | 3.2 | 8.0 | 0.00 | 0.00 | 0.00 | 25 | 1005.6 |
| 20260508233037 | 17 | 226 | 3.2 | 20.9 | 0.00 | 0.00 | 0.00 | 28 | 1005.5 |
| 20260508232528 | 17 | 204 | 4.8 | 20.9 | 0.00 | 0.00 | 0.00 | 26 | 1005.7 |
| 20260508232028 | 18 | 319 | 8.0 | 19.3 | 0.00 | 0.00 | 0.00 | 26 | 1005.7 |
| 20260508231548 | 18 | 228 | 3.2 | 9.7 | 0.00 | 0.00 | 0.00 | 26 | 1005.7 |
| 20260508231032 | 18 | 240 | 3.2 | 9.7 | 0.00 | 0.00 | 0.00 | 27 | 1005.7 |
| 20260508230531 | 18 | 224 | 4.8 | 9.7 | 0.00 | 0.00 | 0.00 | 27 | 1005.7 |
| 20260508230056 | 18 | 226 | 3.2 | 6.4 | 0.00 | 0.00 | 0.00 | 28 | 1005.7 |
| 20260508225531 | 18 | 223 | 3.2 | 8.0 | 0.00 | 0.00 | 0.00 | 28 | 1005.9 |
| 20260508225031 | 18 | 220 | 3.2 | 8.0 | 0.00 | 0.00 | 0.00 | 28 | 1005.9 |
| 20260508224546 | 18 | 220 | 3.2 | 8.0 | 0.00 | 0.00 | 0.00 | 27 | 1005.8 |
| 20260508224029 | 18 | 241 | 3.2 | 12.9 | 0.00 | 0.00 | 0.00 | 27 | 1005.8 |
| 20260508223531 | 18 | 219 | 3.2 | 12.9 | 0.00 | 0.00 | 0.00 | 29 | 1005.8 |
| 20260508223042 | 18 | 236 | 6.4 | 11.3 | 0.00 | 0.00 | 0.00 | 27 | 1005.8 |
| 20260508222530 | 18 | 213 | 4.8 | 11.3 | 0.00 | 0.00 | 0.00 | 27 | 1005.9 |
| 20260508222030 | 17 | 274 | 3.2 | 12.9 | 0.00 | 0.00 | 0.00 | 25 | 1005.9 |
| 20260508221548 | 17 | 276 | 6.4 | 12.9 | 0.00 | 0.00 | 0.00 | 25 | 1005.9 |
| 20260508221030 | 17 | 266 | 3.2 | 11.3 | 0.00 | 0.00 | 0.00 | 27 | 1005.9 |
| 20260508220530 | 17 | 169 | 3.2 | 11.3 | 0.00 | 0.00 | 0.00 | 29 | 1005.9 |
| 20260508220042 | 17 | 221 | 3.2 | 11.3 | 0.00 | 0.00 | 0.00 | 28 | 1006.0 |
| 20260508215530 | 17 | 224 | 4.8 | 11.3 | 0.00 | 0.00 | 0.00 | 29 | 1006.0 |
| 20260508215033 | 17 | 197 | 4.8 | 11.3 | 0.00 | 0.00 | 0.00 | 27 | 1006.1 |
| 20260508214544 | 17 | 263 | 3.2 | 19.3 | 0.00 | 0.00 | 0.00 | 27 | 1006.1 |
| 20260508214028 | 17 | 233 | 6.4 | 19.3 | 0.00 | 0.00 | 0.00 | 27 | 1006.2 |
| 20260508213530 | 17 | 288 | 6.4 | 17.7 | 0.00 | 0.00 | 0.00 | 27 | 1006.2 |
| 20260508213044 | 17 | 269 | 4.8 | 17.7 | 0.00 | 0.00 | 0.00 | 28 | 1006.1 |
| 20260508212527 | 17 | 238 | 6.4 | 17.7 | 0.00 | 0.00 | 0.00 | 26 | 1006.1 |
| 20260508212029 | 18 | 275 | 8.0 | 17.7 | 0.00 | 0.00 | 0.00 | 27 | 1006.3 |
| 20260508211542 | 18 | 212 | 4.8 | 12.9 | 0.00 | 0.00 | 0.00 | 27 | 1006.1 |
| 20260508211028 | 17 | 181 | 6.4 | 12.9 | 0.00 | 0.00 | 0.00 | 27 | 1006.2 |
| 20260508210530 | 17 | 218 | 6.4 | 16.1 | 0.00 | 0.00 | 0.00 | 27 | 1006.4 |
| 20260508210039 | 17 | 225 | 8.0 | 16.1 | 0.00 | 0.00 | 0.00 | 27 | 1006.4 |
| 20260508205530 | 17 | 231 | 4.8 | 16.1 | 0.00 | 0.00 | 0.00 | 30 | 1006.4 |
| 20260508205032 | 17 | 179 | 4.8 | 16.1 | 0.00 | 0.00 | 0.00 | 27 | 1006.4 |
| 20260508204544 | 17 | 266 | 4.8 | 14.5 | 0.00 | 0.00 | 0.00 | 26 | 1006.5 |
| 20260508204027 | 17 | 252 | 4.8 | 12.9 | 0.00 | 0.00 | 0.00 | 28 | 1006.5 |
| 20260508203530 | 17 | 236 | 3.2 | 12.9 | 0.00 | 0.00 | 0.00 | 27 | 1006.6 |
| 20260508203041 | 17 | 221 | 4.8 | 12.9 | 0.00 | 0.00 | 0.00 | 32 | 1006.8 |
| 20260508202531 | 17 | 285 | 6.4 | 14.5 | 0.00 | 0.00 | 0.00 | 27 | 1006.7 |
| 20260508202030 | 17 | 224 | 8.0 | 14.5 | 0.00 | 0.00 | 0.00 | 29 | 1006.8 |
| 20260508201546 | 17 | 286 | 3.2 | 9.7 | 0.00 | 0.00 | 0.00 | 27 | 1006.9 |
| 20260508201032 | 17 | 240 | 1.6 | 9.7 | 0.00 | 0.00 | 0.00 | 26 | 1007.0 |
| 20260508200530 | 17 | 243 | 3.2 | 9.7 | 0.00 | 0.00 | 0.00 | 26 | 1007.0 |
| 20260508200051 | 17 | 233 | 6.4 | 9.7 | 0.00 | 0.00 | 0.00 | 29 | 1007.1 |
| 20260508195529 | 16 | 235 | 1.6 | 20.9 | 0.00 | 0.00 | 0.00 | 27 | 1007.1 |
| 20260508195030 | 16 | 243 | 4.8 | 20.9 | 0.00 | 0.00 | 0.00 | 29 | 1007.1 |
| 20260508194539 | 16 | 329 | 11.3 | 20.9 | 0.00 | 0.00 | 0.00 | 25 | 1007.2 |
| 20260508194029 | 16 | 183 | 3.2 | 14.5 | 0.00 | 0.00 | 0.00 | 28 | 1007.3 |
| 20260508193533 | 16 | 233 | 4.8 | 9.7 | 0.00 | 0.00 | 0.00 | 31 | 1007.3 |
| 20260508193037 | 16 | 0 | 0.0 | 16.1 | 0.00 | 0.00 | 0.00 | 28 | 1007.3 |
| 20260508192533 | 16 | 249 | 6.4 | 17.7 | 0.00 | 0.00 | 0.00 | 27 | 1007.4 |
| 20260508192029 | 16 | 295 | 11.3 | 17.7 | 0.00 | 0.00 | 0.00 | 27 | 1007.4 |
| 20260508191535 | 16 | 240 | 8.0 | 17.7 | 0.00 | 0.00 | 0.00 | 28 | 1007.5 |
| 20260508191030 | 16 | 224 | 6.4 | 16.1 | 0.00 | 0.00 | 0.00 | 27 | 1007.5 |
| 20260508190528 | 16 | 289 | 4.8 | 17.7 | 0.00 | 0.00 | 0.00 | 27 | 1007.5 |
| 20260508190045 | 16 | 291 | 8.0 | 17.7 | 0.00 | 0.00 | 0.00 | 27 | 1007.7 |
| 20260508185533 | 16 | 291 | 3.2 | 11.3 | 0.00 | 0.00 | 0.00 | 27 | 1007.9 |
| 20260508185028 | 16 | 275 | 3.2 | 9.7 | 0.00 | 0.00 | 0.00 | 26 | 1007.9 |
| 20260508184543 | 16 | 304 | 1.6 | 11.3 | 0.00 | 0.00 | 0.00 | 28 | 1007.9 |
| 20260508184027 | 16 | 190 | 4.8 | 17.7 | 0.00 | 0.00 | 0.00 | 25 | 1008.0 |
| 20260508183527 | 16 | 240 | 9.7 | 17.7 | 0.00 | 0.00 | 0.00 | 25 | 1008.0 |
| 20260508183037 | 16 | 317 | 4.8 | 9.7 | 0.00 | 0.00 | 0.00 | 31 | 1008.0 |
| 20260508182533 | 16 | 238 | 3.2 | 12.9 | 0.00 | 0.00 | 0.00 | 28 | 1007.9 |
| 20260508182027 | 16 | 171 | 6.4 | 12.9 | 0.00 | 0.00 | 0.00 | 31 | 1008.1 |
| 20260508181537 | 16 | 192 | 3.2 | 14.5 | 0.00 | 0.00 | 0.00 | 30 | 1008.2 |
| 20260508181028 | 16 | 237 | 4.8 | 14.5 | 0.00 | 0.00 | 0.00 | 27 | 1008.2 |
| 20260508180532 | 16 | 224 | 3.2 | 8.0 | 0.00 | 0.00 | 0.00 | 29 | 1008.4 |
| 20260508180035 | 15 | 186 | 3.2 | 14.5 | 0.00 | 0.00 | 0.00 | 30 | 1008.6 |
| 20260508175528 | 15 | 274 | 4.8 | 14.5 | 0.00 | 0.00 | 0.00 | 29 | 1008.7 |
| 20260508175031 | 15 | 229 | 4.8 | 12.9 | 0.00 | 0.00 | 0.00 | 27 | 1008.9 |
| 20260508174542 | 15 | 147 | 8.0 | 12.9 | 0.00 | 0.00 | 0.00 | 30 | 1008.8 |
| 20260508174028 | 15 | 152 | 6.4 | 20.9 | 0.00 | 0.00 | 0.00 | 33 | 1008.9 |
| 20260508173529 | 15 | 192 | 3.2 | 20.9 | 0.00 | 0.00 | 0.00 | 33 | 1009.0 |
| 20260508173044 | 15 | 161 | 9.7 | 24.1 | 0.00 | 0.00 | 0.00 | 28 | 1009.1 |
| 20260508172531 | 15 | 210 | 4.8 | 24.1 | 0.00 | 0.00 | 0.00 | 29 | 1009.1 |
| 20260508172030 | 15 | 285 | 4.8 | 19.3 | 0.00 | 0.00 | 0.00 | 28 | 1009.1 |
| 20260508171552 | 15 | 231 | 4.8 | 17.7 | 0.00 | 0.00 | 0.00 | 30 | 1009.1 |
| 20260508171029 | 15 | 322 | 1.6 | 17.7 | 0.00 | 0.00 | 0.00 | 29 | 1009.1 |
| 20260508170530 | 15 | 309 | 6.4 | 17.7 | 0.00 | 0.00 | 0.00 | 28 | 1009.2 |
| 20260508170046 | 15 | 243 | 4.8 | 17.7 | 0.00 | 0.00 | 0.00 | 31 | 1009.3 |
| 20260508165527 | 14 | 194 | 4.8 | 17.7 | 0.00 | 0.00 | 0.00 | 32 | 1009.3 |
| 20260508165027 | 14 | 281 | 8.0 | 16.1 | 0.00 | 0.00 | 0.00 | 31 | 1009.3 |
| 20260508164538 | 15 | 248 | 4.8 | 16.1 | 0.00 | 0.00 | 0.00 | 29 | 1009.4 |
| 20260508164030 | 15 | 216 | 6.4 | 16.1 | 0.00 | 0.00 | 0.00 | 28 | 1009.5 |
| 20260508163527 | 15 | 175 | 3.2 | 9.7 | 0.00 | 0.00 | 0.00 | 32 | 1009.4 |
| 20260508163044 | 15 | 192 | 4.8 | 9.7 | 0.00 | 0.00 | 0.00 | 29 | 1009.5 |
| 20260508162531 | 15 | 219 | 4.8 | 9.7 | 0.00 | 0.00 | 0.00 | 33 | 1009.7 |
| 20260508162030 | 15 | 222 | 1.6 | 8.0 | 0.00 | 0.00 | 0.00 | 34 | 1009.8 |
| 20260508161543 | 15 | 287 | 3.2 | 12.9 | 0.00 | 0.00 | 0.00 | 32 | 1009.8 |
| 20260508161030 | 14 | 219 | 3.2 | 17.7 | 0.00 | 0.00 | 0.00 | 34 | 1009.9 |
| 20260508160527 | 13 | 229 | 6.4 | 17.7 | 0.00 | 0.00 | 0.00 | 34 | 1010.0 |
| 20260508160038 | 14 | 302 | 3.2 | 11.3 | 0.00 | 0.00 | 0.00 | 32 | 1009.8 |
| 20260508155530 | 14 | 231 | 3.2 | 16.1 | 0.00 | 0.00 | 0.00 | 35 | 1010.0 |
| 20260508155030 | 13 | 229 | 3.2 | 16.1 | 0.00 | 0.00 | 0.00 | 34 | 1010.1 |
| 20260508154536 | 14 | 267 | 4.8 | 11.3 | 0.00 | 0.00 | 0.00 | 32 | 1010.1 |
| 20260508154032 | 13 | 226 | 3.2 | 11.3 | 0.00 | 0.00 | 0.00 | 40 | 1010.1 |
| 20260508153530 | 13 | 219 | 4.8 | 11.3 | 0.00 | 0.00 | 0.00 | 39 | 1010.2 |
| 20260508153037 | 14 | 195 | 6.4 | 11.3 | 0.00 | 0.00 | 0.00 | 38 | 1010.1 |
| 20260508152532 | 13 | 165 | 0.0 | 12.9 | 0.00 | 0.00 | 0.00 | 39 | 1010.2 |
| 20260508152027 | 13 | 218 | 1.6 | 12.9 | 0.00 | 0.00 | 0.00 | 38 | 1010.2 |
| 20260508151541 | 13 | 194 | 4.8 | 11.3 | 0.00 | 0.00 | 0.00 | 40 | 1010.3 |
| 20260508151030 | 13 | 227 | 4.8 | 8.0 | 0.00 | 0.00 | 0.00 | 41 | 1010.3 |
| 20260508150532 | 13 | 259 | 3.2 | 8.0 | 0.00 | 0.00 | 0.00 | 38 | 1010.2 |
| 20260508150044 | 13 | 219 | 3.2 | 8.0 | 0.00 | 0.00 | 0.00 | 39 | 1010.4 |
| 20260508145532 | 13 | 186 | 4.8 | 9.7 | 0.00 | 0.00 | 0.00 | 41 | 1010.3 |
| 20260508145027 | 13 | 166 | 3.2 | 9.7 | 0.00 | 0.00 | 0.00 | 41 | 1010.3 |
| 20260508144540 | 12 | 228 | 3.2 | 9.7 | 0.00 | 0.00 | 0.00 | 43 | 1010.4 |
| 20260508144034 | 12 | 187 | 4.8 | 11.3 | 0.00 | 0.00 | 0.00 | 42 | 1010.6 |
| 20260508143527 | 12 | 195 | 4.8 | 11.3 | 0.00 | 0.00 | 0.00 | 44 | 1010.5 |
| 20260508143036 | 12 | 238 | 3.2 | 11.3 | 0.00 | 0.00 | 0.00 | 46 | 1010.6 |
| 20260508142531 | 12 | 188 | 3.2 | 8.0 | 0.00 | 0.00 | 0.00 | 49 | 1010.7 |
| 20260508142029 | 12 | 212 | 4.8 | 8.0 | 0.00 | 0.00 | 0.00 | 47 | 1010.7 |
| 20260508141542 | 12 | 184 | 3.2 | 9.7 | 0.00 | 0.00 | 0.00 | 50 | 1010.7 |
| 20260508141030 | 11 | 203 | 4.8 | 9.7 | 0.00 | 0.00 | 0.00 | 51 | 1010.7 |
| 20260508140533 | 11 | 185 | 3.2 | 6.4 | 0.00 | 0.00 | 0.00 | 52 | 1010.7 |
| 20260508140043 | 11 | 230 | 3.2 | 8.0 | 0.00 | 0.00 | 0.00 | 53 | 1010.9 |
| 20260508135528 | 11 | 186 | 3.2 | 9.7 | 0.00 | 0.00 | 0.00 | 56 | 1010.8 |
| 20260508135031 | 11 | 190 | 4.8 | 9.7 | 0.00 | 0.00 | 0.00 | 56 | 1010.9 |
| 20260508134540 | 10 | 197 | 4.8 | 8.0 | 0.00 | 0.00 | 0.00 | 57 | 1010.9 |
| 20260508134029 | 10 | 213 | 4.8 | 9.7 | 0.00 | 0.00 | 0.00 | 58 | 1010.9 |
| 20260508133532 | 10 | 204 | 4.8 | 9.7 | 0.00 | 0.00 | 0.00 | 62 | 1011.0 |
| 20260508133038 | 10 | 225 | 4.8 | 8.0 | 0.00 | 0.00 | 0.00 | 60 | 1010.9 |
| 20260508132527 | 10 | 177 | 4.8 | 8.0 | 0.00 | 0.00 | 0.00 | 61 | 1011.0 |
| 20260508132027 | 9 | 214 | 3.2 | 8.0 | 0.00 | 0.00 | 0.00 | 63 | 1011.0 |
| 20260508131539 | 8 | 177 | 3.2 | 6.4 | 0.00 | 0.00 | 0.00 | 63 | 1011.0 |
| 20260508131030 | 8 | 200 | 3.2 | 6.4 | 0.00 | 0.00 | 0.00 | 64 | 1011.2 |
| 20260508130526 | 8 | 194 | 1.6 | 8.0 | 0.00 | 0.00 | 0.00 | 65 | 1011.1 |
| 20260508130056 | 8 | 237 | 3.2 | 8.0 | 0.00 | 0.00 | 0.00 | 65 | 1011.2 |
| 20260508125526 | 8 | 201 | 3.2 | 8.0 | 0.00 | 0.00 | 0.00 | 66 | 1011.2 |
| 20260508125031 | 7 | 224 | 1.6 | 4.8 | 0.00 | 0.00 | 0.00 | 69 | 1011.1 |
| 20260508124535 | 7 | 209 | 1.6 | 4.8 | 0.00 | 0.00 | 0.00 | 72 | 1011.1 |
| 20260508124026 | 7 | 212 | 1.6 | 4.8 | 0.00 | 0.00 | 0.00 | 72 | 1011.1 |
| 20260508123531 | 6 | 195 | 1.6 | 3.2 | 0.00 | 0.00 | 0.00 | 74 | 1011.2 |
| 20260508123043 | 6 | 223 | 1.6 | 3.2 | 0.00 | 0.00 | 0.00 | 75 | 1011.1 |
| 20260508122528 | 6 | 230 | 1.6 | 3.2 | 0.00 | 0.00 | 0.00 | 76 | 1011.1 |
| 20260508122029 | 6 | 212 | 0.0 | 1.6 | 0.00 | 0.00 | 0.00 | 77 | 1011.1 |
| 20260508121554 | 5 | 198 | 0.0 | 3.2 | 0.00 | 0.00 | 0.00 | 79 | 1011.1 |
| 20260508121027 | 5 | 198 | 0.0 | 3.2 | 0.00 | 0.00 | 0.00 | 81 | 1011.1 |
| 20260508120526 | 5 | 0 | 0.0 | 3.2 | 0.00 | 0.00 | 0.00 | 82 | 1010.9 |
| 20260508120038 | 4 | 231 | 0.0 | 1.6 | 0.00 | 0.00 | 0.00 | 83 | 1010.8 |
| 20260508115528 | 3 | 231 | 0.0 | 1.6 | 0.00 | 0.00 | 0.00 | 85 | 1010.8 |
| 20260508115026 | 3 | 0 | 0.0 | 1.6 | 0.00 | 0.00 | 0.00 | 87 | 1010.8 |
| 20260508114535 | 2 | 231 | 0.0 | 3.2 | 0.00 | 0.00 | 0.00 | 87 | 1010.7 |
| 20260508114027 | 2 | 0 | 1.6 | 3.2 | 0.00 | 0.00 | 0.00 | 87 | 1010.7 |
| 20260508113526 | 1 | 0 | 0.0 | 1.6 | 0.00 | 0.00 | 0.00 | 88 | 1010.8 |
| 20260508113041 | 1 | 0 | 0.0 | 1.6 | 0.00 | 0.00 | 0.00 | 88 | 1010.7 |
| 20260508112527 | 1 | 0 | 0.0 | 0.0 | 0.00 | 0.00 | 0.00 | 88 | 1010.7 |
| 20260508112027 | 1 | 0 | 0.0 | 1.6 | 0.00 | 0.00 | 0.00 | 87 | 1010.8 |
| 20260508111541 | 1 | 0 | 0.0 | 1.6 | 0.00 | 0.00 | 0.00 | 87 | 1010.6 |
| 20260508111026 | 1 | 231 | 0.0 | 1.6 | 0.00 | 0.00 | 0.00 | 87 | 1010.5 |
| 20260508110528 | 1 | 231 | 0.0 | 1.6 | 0.00 | 0.00 | 0.00 | 87 | 1010.6 |
| 20260508110037 | 1 | 231 | 1.6 | 1.6 | 0.00 | 0.00 | 0.00 | 87 | 1010.6 |
| 20260508105530 | 1 | 231 | 0.0 | 1.6 | 0.00 | 0.00 | 0.00 | 87 | 1010.6 |
| 20260508105029 | 1 | 231 | 0.0 | 1.6 | 0.00 | 0.00 | 0.00 | 87 | 1010.6 |
| 20260508104603 | 1 | 0 | 0.0 | 1.6 | 0.00 | 0.00 | 0.00 | 87 | 1010.6 |
| 20260508104029 | 1 | 0 | 0.0 | 1.6 | 0.00 | 0.00 | 0.00 | 88 | 1010.6 |
| 20260508103528 | 1 | 0 | 0.0 | 1.6 | 0.00 | 0.00 | 0.00 | 89 | 1010.7 |
| 20260508103045 | 1 | 232 | 0.0 | 1.6 | 0.00 | 0.00 | 0.00 | 89 | 1010.7 |
| 20260508102529 | 0 | 0 | 0.0 | 1.6 | 0.00 | 0.00 | 0.00 | 89 | 1010.7 |
| 20260508102027 | 0 | 0 | 0.0 | 0.0 | 0.00 | 0.00 | 0.00 | 89 | 1010.7 |
| 20260508101542 | 0 | 0 | 0.0 | 0.0 | 0.00 | 0.00 | 0.00 | 89 | 1010.8 |
| 20260508101030 | 0 | 0 | 0.0 | 1.6 | 0.00 | 0.00 | 0.00 | 89 | 1010.8 |
| 20260508100528 | 0 | 0 | 0.0 | 1.6 | 0.00 | 0.00 | 0.00 | 89 | 1010.9 |
| 20260508100041 | 0 | 0 | 0.0 | 0.0 | 0.00 | 0.00 | 0.00 | 89 | 1010.9 |
| 20260508095527 | 0 | 0 | 0.0 | 0.0 | 0.00 | 0.00 | 0.00 | 88 | 1010.9 |
| 20260508095027 | 0 | 0 | 0.0 | 0.0 | 0.00 | 0.00 | 0.00 | 87 | 1010.9 |
| 20260508094544 | 0 | 0 | 0.0 | 0.0 | 0.00 | 0.00 | 0.00 | 87 | 1010.9 |
| 20260508094029 | 0 | 0 | 0.0 | 1.6 | 0.00 | 0.00 | 0.00 | 87 | 1010.9 |
| 20260508093530 | 0 | 0 | 0.0 | 1.6 | 0.00 | 0.00 | 0.00 | 88 | 1010.9 |
| 20260508093038 | 1 | 0 | 0.0 | 1.6 | 0.00 | 0.00 | 0.00 | 87 | 1010.9 |
| 20260508092530 | 1 | 0 | 0.0 | 1.6 | 0.00 | 0.00 | 0.00 | 87 | 1010.9 |
| 20260508092028 | 1 | 0 | 0.0 | 1.6 | 0.00 | 0.00 | 0.00 | 86 | 1010.9 |
| 20260508091544 | 1 | 0 | 0.0 | 1.6 | 0.00 | 0.00 | 0.00 | 86 | 1011.1 |
| 20260508091029 | 1 | 232 | 0.0 | 1.6 | 0.00 | 0.00 | 0.00 | 85 | 1011.0 |
| 20260508090529 | 1 | 0 | 0.0 | 0.0 | 0.00 | 0.00 | 0.00 | 85 | 1010.9 |
| 20260508085531 | 1 | 0 | 0.0 | 1.6 | 0.00 | 0.00 | 0.00 | 85 | 1011.0 |
| 20260508085029 | 1 | 0 | 0.0 | 1.6 | 0.00 | 0.00 | 0.00 | 85 | 1010.9 |
| 20260508084541 | 1 | 0 | 0.0 | 1.6 | 0.00 | 0.00 | 0.00 | 84 | 1011.0 |
| 20260508084032 | 2 | 0 | 0.0 | 1.6 | 0.00 | 0.00 | 0.00 | 83 | 1010.9 |
| 20260508083533 | 2 | 0 | 0.0 | 1.6 | 0.00 | 0.00 | 0.00 | 83 | 1010.9 |
| 20260508083102 | 2 | 0 | 0.0 | 1.6 | 0.00 | 0.00 | 0.00 | 83 | 1010.9 |
| 20260508082529 | 2 | 232 | 0.0 | 3.2 | 0.00 | 0.00 | 0.00 | 82 | 1011.0 |
| 20260508082028 | 2 | 231 | 0.0 | 3.2 | 0.00 | 0.00 | 0.00 | 82 | 1011.0 |
| 20260508081552 | 2 | 232 | 0.0 | 3.2 | 0.00 | 0.00 | 0.00 | 83 | 1011.0 |
| 20260508081031 | 2 | 282 | 0.0 | 1.6 | 0.00 | 0.00 | 0.00 | 83 | 1011.0 |
| 20260508080533 | 2 | 0 | 0.0 | 1.6 | 0.00 | 0.00 | 0.00 | 83 | 1011.0 |
| 20260508080043 | 2 | 0 | 0.0 | 1.6 | 0.00 | 0.00 | 0.00 | 83 | 1011.1 |
| 20260508075531 | 2 | 282 | 0.0 | 1.6 | 0.00 | 0.00 | 0.00 | 83 | 1010.9 |
| 20260508075033 | 2 | 282 | 0.0 | 1.6 | 0.00 | 0.00 | 0.00 | 84 | 1011.0 |
| 20260508074536 | 2 | 0 | 0.0 | 1.6 | 0.00 | 0.00 | 0.00 | 83 | 1011.0 |
| 20260508074032 | 2 | 0 | 0.0 | 1.6 | 0.00 | 0.00 | 0.00 | 83 | 1011.1 |
| 20260508073529 | 2 | 0 | 0.0 | 1.6 | 0.00 | 0.00 | 0.00 | 84 | 1011.1 |
| 20260508073039 | 2 | 282 | 0.0 | 1.6 | 0.00 | 0.00 | 0.00 | 83 | 1011.0 |
| 20260508072531 | 2 | 0 | 0.0 | 1.6 | 0.00 | 0.00 | 0.00 | 82 | 1011.2 |
| 20260508072029 | 3 | 0 | 0.0 | 1.6 | 0.00 | 0.00 | 0.00 | 82 | 1011.2 |
| 20260508071541 | 3 | 0 | 0.0 | 1.6 | 0.00 | 0.00 | 0.00 | 81 | 1011.2 |
| 20260508071030 | 3 | 0 | 0.0 | 1.6 | 0.00 | 0.00 | 0.00 | 81 | 1011.2 |
| 20260508070532 | 3 | 0 | 0.0 | 1.6 | 0.00 | 0.00 | 0.00 | 81 | 1011.3 |
| 20260508070136 | 3 | 0 | 0.0 | 1.6 | 0.00 | 0.00 | 0.00 | 80 | 1011.4 |
| 20260508065528 | 3 | 0 | 0.0 | 1.6 | 0.00 | 0.00 | 0.00 | 80 | 1011.2 |
| 20260508065028 | 3 | 0 | 0.0 | 1.6 | 0.00 | 0.00 | 0.00 | 80 | 1011.4 |
| 20260508064543 | 3 | 0 | 0.0 | 1.6 | 0.00 | 0.00 | 0.00 | 80 | 1011.4 |
| 20260508064028 | 3 | 0 | 0.0 | 1.6 | 0.00 | 0.00 | 0.00 | 80 | 1011.4 |
| 20260508063532 | 3 | 0 | 0.0 | 1.6 | 0.00 | 0.00 | 0.00 | 80 | 1011.4 |
| 20260508063041 | 3 | 0 | 0.0 | 1.6 | 0.00 | 0.00 | 0.00 | 80 | 1011.5 |
| 20260508062528 | 3 | 0 | 0.0 | 1.6 | 0.00 | 0.00 | 0.00 | 80 | 1011.5 |
| 20260508062027 | 3 | 0 | 0.0 | 1.6 | 0.00 | 0.00 | 0.00 | 79 | 1011.6 |
| 20260508061548 | 3 | 0 | 0.0 | 1.6 | 0.00 | 0.00 | 0.00 | 79 | 1011.5 |
| 20260508061033 | 3 | 0 | 0.0 | 1.6 | 0.00 | 0.00 | 0.00 | 79 | 1011.6 |
| 20260508060534 | 4 | 0 | 0.0 | 1.6 | 0.00 | 0.00 | 0.00 | 78 | 1011.6 |
| 20260508060044 | 4 | 0 | 0.0 | 1.6 | 0.00 | 0.00 | 0.00 | 78 | 1011.7 |
| 20260508055531 | 4 | 0 | 0.0 | 0.0 | 0.00 | 0.00 | 0.00 | 77 | 1011.6 |
| 20260508055028 | 4 | 0 | 0.0 | 1.6 | 0.00 | 0.00 | 0.00 | 76 | 1011.7 |
| 20260508054543 | 5 | 0 | 0.0 | 1.6 | 0.00 | 0.00 | 0.00 | 75 | 1011.6 |
| 20260508054030 | 5 | 0 | 0.0 | 1.6 | 0.00 | 0.00 | 0.00 | 74 | 1011.6 |